Weather History for Crestview, FL

Change the Weather History Date:

Friday, November 25, 2011

  Actual Average Record
Temperature  
Mean Temperature 54 °F -  
Max Temperature 72 °F - - ()
Min Temperature 37 °F - - ()
Degree Days  
Heating Degree Days 10    
Growing Degree Days 4 (Base 50)    
Moisture  
Dew Point 45 °F    
Average Humidity 70    
Maximum Humidity 91    
Minimum Humidity 43    
Precipitation  
Precipitation 0.00 in - - ()
Sea Level Pressure  
Sea Level Pressure 30.25 in    
Wind  
Wind Speed 4 mph (ESE)    
Max Wind Speed 15 mph    
Max Gust Speed 21 mph    
Visibility 10 miles    
Events      
T = Trace of Precipitation, MM = Missing Value Source: NWS Daily Summary

Daily Weather History Graph

Daily Weather History Graph

Search for Another Location

Airport:

Trip Planner

Search our weather history database for the weather conditions in past years. The results will help you decide how hot, cold, wet, or windy it might be!

Date:

Astronomy

Nov. 25, 2011 Rise Set
Actual Time 6:20 AM CST 4:45 PM CST
Civil Twilight 5:54 AM CST 5:11 PM CST
Nautical Twilight 5:25 AM CST 5:40 PM CST
Astronomical Twilight 4:56 AM CST 6:09 PM CST
Moon 6:44 AM CST (11/25) 5:16 PM CST (11/25)
Length of Visible Light 11h 16m
Length of Day
10h 24m
New Moon, 0% of the Moon is Illuminated
Nov 25
New Moon
Dec 2
First Quarter
Dec 10
Full
Dec 17
Last Quarter
Dec 24
New

Hourly Weather History & Observations

Time (CST) Temp. Windchill Dew Point Humidity Pressure Visibility Wind Dir Wind Speed Gust Speed Precip Events Conditions
12:55 AM 38.3 °F - 35.2 °F 89% 30.30 in 10.0 mi Calm Calm - N/A   Clear
1:55 AM 43.5 °F 41.9 °F 37.4 °F 79% 30.29 in 10.0 mi East 3.5 mph - N/A   Clear
2:55 AM 45.7 °F 44.4 °F 39.6 °F 79% 30.29 in 10.0 mi East 3.5 mph - N/A   Clear
3:55 AM 39.9 °F - 36.0 °F 86% 30.30 in 10.0 mi Calm Calm - N/A   Clear
4:55 AM 39.4 °F 37.2 °F 36.0 °F 88% 30.30 in 10.0 mi NE 3.5 mph - N/A   Clear
5:55 AM 37.8 °F - 34.7 °F 89% 30.31 in 10.0 mi Calm Calm - N/A   Clear
6:55 AM 38.8 °F - 36.5 °F 91% 30.32 in 10.0 mi Calm Calm - N/A   Clear
7:55 AM 51.4 °F - 42.8 °F 72% 30.33 in 10.0 mi East 6.9 mph - N/A   Clear
8:55 AM 58.6 °F - 45.7 °F 62% 30.33 in 10.0 mi East 6.9 mph - N/A   Clear
9:55 AM 64.6 °F - 49.1 °F 57% 30.32 in 10.0 mi ESE 9.2 mph - N/A   Clear
10:55 AM 68.7 °F - 50.7 °F 53% 30.29 in 10.0 mi ESE 10.4 mph - N/A   Clear
11:55 AM 71.2 °F - 49.6 °F 46% 30.26 in 10.0 mi ESE 9.2 mph 18.4 mph N/A   Clear
12:55 PM 71.2 °F - 50.0 °F 47% 30.24 in 10.0 mi East 9.2 mph - N/A   Clear
1:55 PM 72.1 °F - 48.4 °F 43% 30.22 in 10.0 mi SE 11.5 mph 18.4 mph N/A   Clear
2:55 PM 71.1 °F - 48.4 °F 44% 30.21 in 10.0 mi SSE 15.0 mph 20.7 mph N/A   Clear
3:55 PM 70.3 °F - 49.3 °F 47% 30.20 in 10.0 mi ESE 11.5 mph 19.6 mph N/A   Clear
4:55 PM 66.4 °F - 49.5 °F 54% 30.19 in 10.0 mi SE 4.6 mph - N/A   Partly Cloudy
5:55 PM 61.3 °F - 49.6 °F 65% 30.20 in 10.0 mi ESE 3.5 mph - N/A   Scattered Clouds
6:55 PM 54.5 °F - 48.6 °F 80% 30.21 in 10.0 mi Calm Calm - N/A   Clear
7:55 PM 56.7 °F - 49.3 °F 76% 30.21 in 10.0 mi ESE 3.5 mph - N/A   Clear
8:55 PM 52.2 °F - 47.7 °F 85% 30.21 in 10.0 mi Calm Calm - N/A   Clear
9:55 PM 49.5 °F - 46.2 °F 89% 30.19 in 10.0 mi Calm Calm - N/A   Scattered Clouds
10:55 PM 51.6 °F - 48.7 °F 90% 30.19 in 10.0 mi East 3.5 mph - N/A   Mostly Cloudy
11:55 PM 61.7 °F - 49.1 °F 63% 30.17 in 10.0 mi ESE 5.8 mph - N/A   Overcast